Hourly Data Report for May 16, 2006

TORONTO CITY
ONTARIO

43°40'00.000" N
79°24'00.000" W
112.50 m
6158355
71508
XTO

Download Data

Hourly Data (May 2006)
Hourly Data Report for May 16, 2006
TIME
LST
Temp Definition
°C
Dew Point Definition
°C
Rel Hum Definition
%
Precip. Amount Definition
mm

Wind Dir Definition
10's deg

Wind Spd Definition
km/h
Visibility Definition
km
Stn Press Definition
kPa
Hmdx Definition


Wind Chill Definition


Weather Definition


00:00 11.5 11.2 98   LegendMM LegendMM   99.33     LegendNANA
01:00 11.1 10.9 99   LegendMM LegendMM   99.25     LegendNANA
02:00 11.5 11.3 99   LegendMM LegendMM   99.17     LegendNANA
03:00 10.4 10.3 99   LegendMM LegendMM   99.15     LegendNANA
04:00 10.1 10.0 99   LegendMM LegendMM   99.11     LegendNANA
05:00 10.4 10.3 99   LegendMM LegendMM   99.06     LegendNANA
06:00 10.7 10.6 99   LegendMM LegendMM   99.03     LegendNANA
07:00 11.0 10.9 99   LegendMM LegendMM   99.03     LegendNANA
08:00 11.3 11.2 99   LegendMM LegendMM   99.01     LegendNANA
09:00 11.6 11.4 99   LegendMM LegendMM   98.99     LegendNANA
10:00 12.1 11.8 98   LegendMM LegendMM   98.97     LegendNANA
11:00 13.8 13.3 97   LegendMM LegendMM   98.91     LegendNANA
12:00 14.0 12.7 92   LegendMM LegendMM   98.87     LegendNANA
13:00 15.8 13.1 84   LegendMM LegendMM   98.81     LegendNANA
14:00 12.9 11.7 92   LegendMM LegendMM   98.81     LegendNANA
15:00 12.8 11.7 93   LegendMM LegendMM   98.78     LegendNANA
16:00 12.9 11.6 92   LegendMM LegendMM   98.77     LegendNANA
17:00 13.9 12.1 89   LegendMM LegendMM   98.76     LegendNANA
18:00 14.4 11.9 85   LegendMM LegendMM   98.77     LegendNANA
19:00 14.6 12.2 86   LegendMM LegendMM   98.75     LegendNANA
20:00 12.7 11.2 91   LegendMM LegendMM   98.75     LegendNANA
21:00 12.9 11.7 92   LegendMM LegendMM   98.78     LegendNANA
22:00 12.0 11.2 95   LegendMM LegendMM   98.74     LegendNANA
23:00 12.3 11.8 97   LegendMM LegendMM   98.71     LegendNANA

Notes on Data Quality.

Legend

  • E = Estimated
  • M = Missing
  • NA = Not Available*
  • [empty] = Indicates an unobserved value
Date modified: